Weather History for Racine, WI

Change the Weather History Date:

Friday, February 15, 2013

  Actual Average Record
Temperature  
Mean Temperature 23 °F -  
Max Temperature 28 °F 33 °F 61 °F (1954)
Min Temperature 16 °F 19 °F -5 °F (1963)
Degree Days  
Heating Degree Days 42    
Moisture  
Dew Point 13 °F    
Average Humidity 66    
Maximum Humidity 88    
Minimum Humidity 46    
Precipitation  
Precipitation 0.01 in - - ()
Sea Level Pressure  
Sea Level Pressure 30.13 in    
Wind  
Wind Speed 9 mph (NW)    
Max Wind Speed 14 mph    
Max Gust Speed 18 mph    
Visibility 8 miles    
Events Snow    
Averages and records for this station are not official NWS values.
T = Trace of Precipitation, MM = Missing Value Source: NWS Daily Summary

Daily Weather History Graph

Daily Weather History Graph

Search for Another Location

Airport:

Trip Planner

Search our weather history database for the weather conditions in past years. The results will help you decide how hot, cold, wet, or windy it might be!

Date:

Astronomy

Feb. 15, 2013 Rise Set
Actual Time 6:47 AM CST 5:23 PM CST
Civil Twilight 6:19 AM CST 5:52 PM CST
Nautical Twilight 5:45 AM CST 6:25 PM CST
Astronomical Twilight 5:13 AM CST 6:58 PM CST
Moon 9:14 AM CST (2/15) 11:33 PM CST (2/15)
Length of Visible Light 11h 33m
Length of Day
10h 35m
Waxing Crescent, 30% of the Moon is Illuminated
Feb 15
Waxing Crescent
Feb 17
First Quarter
Feb 25
Full
Mar 4
Last Quarter
Mar 11
New

Hourly Weather History & Observations

Time (CST) Temp. Windchill Dew Point Humidity Pressure Visibility Wind Dir Wind Speed Gust Speed Precip Events Conditions
12:53 AM 28.9 °F 22.8 °F 21.0 °F 72% 30.01 in 10.0 mi NW 5.8 mph - N/A   Overcast
1:23 AM 28.4 °F 18.5 °F 24.8 °F 86% 29.99 in 2.5 mi North 11.5 mph - 0.00 in Snow Light Snow
1:32 AM 28.4 °F 19.1 °F 24.8 °F 86% 30.00 in 1.8 mi NNE 10.4 mph - 0.00 in Snow Light Snow
1:36 AM 28.4 °F 19.1 °F 24.8 °F 86% 30.00 in 2.0 mi North 10.4 mph - 0.00 in Snow Light Snow
1:53 AM 26.1 °F 15.6 °F 23.0 °F 88% 30.03 in 1.5 mi North 11.5 mph - 0.01 in Snow Light Snow
2:00 AM 26.6 °F 15.7 °F 23.0 °F 86% 30.01 in 1.5 mi North 12.7 mph - 0.00 in Snow Light Snow
2:28 AM 26.6 °F 15.2 °F 21.2 °F 80% 30.02 in 3.0 mi North 13.8 mph - 0.00 in Snow Light Snow
2:53 AM 26.1 °F 16.8 °F 21.9 °F 84% 30.06 in 5.0 mi NNW 9.2 mph - 0.00 in Snow Light Snow
3:32 AM 24.8 °F 14.6 °F 17.6 °F 74% 30.04 in 9.0 mi NNW 10.4 mph - 0.00 in Snow Light Snow
3:53 AM 24.1 °F 13.1 °F 16.0 °F 71% 30.07 in 10.0 mi NNW 11.5 mph 18.4 mph 0.00 in   Overcast
4:10 AM 24.8 °F 16.1 °F 15.8 °F 69% 30.06 in 10.0 mi NNW 8.1 mph - N/A   Overcast
4:53 AM 21.9 °F 11.7 °F 14.0 °F 72% 30.11 in 10.0 mi NW 9.2 mph - N/A   Scattered Clouds
5:53 AM 19.9 °F 11.1 °F 12.0 °F 71% 30.13 in 10.0 mi NW 6.9 mph - N/A   Clear
6:53 AM 18.0 °F 9.8 °F 10.0 °F 71% 30.16 in 10.0 mi WNW 5.8 mph - N/A   Clear
7:53 AM 18.0 °F 6.1 °F 9.0 °F 68% 30.18 in 10.0 mi WNW 10.4 mph - N/A   Clear
8:53 AM 19.0 °F 6.8 °F 9.0 °F 65% 30.19 in 10.0 mi NW 11.5 mph - N/A   Clear
9:53 AM 21.0 °F 11.4 °F 9.0 °F 60% 30.20 in 10.0 mi NW 8.1 mph - N/A   Clear
10:53 AM 23.0 °F 11.7 °F 9.0 °F 55% 30.20 in 10.0 mi NNW 11.5 mph - N/A   Clear
11:53 AM 24.1 °F 13.1 °F 9.0 °F 53% 30.19 in 10.0 mi WNW 11.5 mph 17.3 mph N/A   Clear
12:53 PM 25.0 °F 15.5 °F 10.0 °F 53% 30.18 in 10.0 mi West 9.2 mph - N/A   Clear
1:53 PM 26.1 °F 16.8 °F 10.0 °F 51% 30.18 in 10.0 mi West 9.2 mph - N/A   Clear
2:53 PM 26.1 °F 15.0 °F 8.1 °F 47% 30.17 in 10.0 mi NW 12.7 mph - N/A   Clear
3:53 PM 26.1 °F 17.6 °F 8.1 °F 47% 30.18 in 10.0 mi WNW 8.1 mph - N/A   Clear
4:53 PM 25.0 °F 15.5 °F 7.0 °F 46% 30.19 in 10.0 mi West 9.2 mph - N/A   Clear
5:53 PM 23.0 °F 18.4 °F 7.0 °F 50% 30.20 in 10.0 mi WNW 3.5 mph - N/A   Clear
6:53 PM 21.9 °F - 7.0 °F 53% 30.21 in 10.0 mi Calm Calm - N/A   Partly Cloudy
7:53 PM 19.9 °F - 8.1 °F 60% 30.21 in 10.0 mi Calm Calm - N/A   Mostly Cloudy
8:53 PM 21.0 °F 11.4 °F 7.0 °F 55% 30.20 in 10.0 mi NW 8.1 mph - N/A   Overcast
9:53 PM 19.9 °F 8.6 °F 6.1 °F 55% 30.20 in 10.0 mi NW 10.4 mph - N/A   Overcast
10:53 PM 18.0 °F 6.9 °F 6.1 °F 60% 30.21 in 10.0 mi NNW 9.2 mph - N/A   Mostly Cloudy
11:53 PM 16.0 °F 7.4 °F 3.0 °F 57% 30.21 in 10.0 mi NW 5.8 mph - N/A   Clear